Time,TemperatureF,DewpointF,PressureIn,WindDirection,WindDirectionDegrees,WindSpeedMPH,WindSpeedGustMPH,Humidity,HourlyPrecipIn,Conditions,Clouds,dailyrainin,SoftwareType,DateUTC
2013-05-25 00:02:00,50.2,46.0,29.95,SSE,150,5.0,11.0,84,0.00,,,0.00,weatherlink.com 1.10,2013-05-25 07:02:00,
2013-05-25 00:17:00,50.1,46.0,29.95,South,191,6.0,13.0,84,0.00,,,0.00,weatherlink.com 1.10,2013-05-25 07:17:00,
2013-05-25 00:32:00,49.9,45.0,29.95,SSW,201,7.0,15.0,84,0.00,,,0.00,weatherlink.com 1.10,2013-05-25 07:32:00,
2013-05-25 00:47:00,49.9,46.0,29.95,SSE,165,6.0,14.0,85,0.00,,,0.00,weatherlink.com 1.10,2013-05-25 07:47:00,
2013-05-25 01:02:00,49.7,45.0,29.95,SE,146,4.0,12.0,85,0.00,,,0.00,weatherlink.com 1.10,2013-05-25 08:02:00,
2013-05-25 01:17:00,49.6,46.0,29.95,SSW,203,2.0,7.0,86,0.00,,,0.00,weatherlink.com 1.10,2013-05-25 08:17:00,
2013-05-25 01:32:00,49.5,46.0,29.95,SE,129,5.0,8.0,86,0.00,,,0.00,weatherlink.com 1.10,2013-05-25 08:32:00,
2013-05-25 01:47:00,49.5,46.0,29.95,SSW,196,5.0,11.0,86,0.00,,,0.00,weatherlink.com 1.10,2013-05-25 08:47:00,
2013-05-25 02:02:00,49.4,46.0,29.95,South,184,6.0,13.0,87,0.00,,,0.00,weatherlink.com 1.10,2013-05-25 09:02:00,
2013-05-25 02:17:00,49.3,46.0,29.95,SW,224,3.0,10.0,87,0.00,,,0.00,weatherlink.com 1.10,2013-05-25 09:17:00,
2013-05-25 02:32:00,49.2,46.0,29.95,SE,138,3.0,8.0,87,0.00,,,0.00,weatherlink.com 1.10,2013-05-25 09:32:00,
2013-05-25 02:47:00,49.1,46.0,29.95,SW,218,3.0,8.0,88,0.00,,,0.00,weatherlink.com 1.10,2013-05-25 09:47:00,
2013-05-25 03:02:00,49.0,46.0,29.94,South,187,3.0,12.0,88,0.00,,,0.00,weatherlink.com 1.10,2013-05-25 10:02:00,
2013-05-25 03:17:00,48.9,46.0,29.94,South,191,6.0,11.0,88,0.00,,,0.00,weatherlink.com 1.10,2013-05-25 10:17:00,
2013-05-25 03:33:00,49.0,46.0,29.94,SSW,201,5.0,13.0,88,0.00,,,0.00,weatherlink.com 1.10,2013-05-25 10:33:00,
2013-05-25 03:48:00,49.0,46.0,29.94,SSE,162,4.0,13.0,88,0.00,,,0.00,weatherlink.com 1.10,2013-05-25 10:48:00,
2013-05-25 04:03:00,49.0,46.0,29.94,SSW,210,4.0,11.0,88,0.00,,,0.00,weatherlink.com 1.10,2013-05-25 11:03:00,
2013-05-25 04:18:00,48.8,45.0,29.95,SW,214,5.0,11.0,88,0.00,,,0.00,weatherlink.com 1.10,2013-05-25 11:18:00,
2013-05-25 04:33:00,48.6,45.0,29.94,South,188,2.0,11.0,88,0.00,,,0.00,weatherlink.com 1.10,2013-05-25 11:33:00,
2013-05-25 04:48:00,48.6,45.0,29.95,SE,146,4.0,11.0,88,0.00,,,0.00,weatherlink.com 1.10,2013-05-25 11:48:00,
2013-05-25 05:03:00,48.4,45.0,29.95,South,176,3.0,11.0,88,0.00,,,0.00,weatherlink.com 1.10,2013-05-25 12:03:00,
2013-05-25 05:18:00,48.3,45.0,29.95,SSW,193,4.0,10.0,88,0.00,,,0.00,weatherlink.com 1.10,2013-05-25 12:18:00,
2013-05-25 05:33:00,48.4,45.0,29.95,SSE,168,6.0,10.0,89,0.00,,,0.00,weatherlink.com 1.10,2013-05-25 12:33:00,
2013-05-25 05:48:00,48.3,45.0,29.96,SSE,162,8.0,9.0,89,0.00,,,0.00,weatherlink.com 1.10,2013-05-25 12:48:00,
2013-05-25 06:03:00,48.4,46.0,29.96,South,188,2.0,9.0,90,0.00,,,0.00,weatherlink.com 1.10,2013-05-25 13:03:00,
2013-05-25 06:18:00,48.4,46.0,29.96,South,187,5.0,9.0,90,0.00,,,0.00,weatherlink.com 1.10,2013-05-25 13:18:00,
2013-05-25 06:33:00,48.6,46.0,29.96,SSW,203,5.0,11.0,89,0.00,,,0.00,weatherlink.com 1.10,2013-05-25 13:33:00,
2013-05-25 06:48:00,48.9,46.0,29.97,SE,139,3.0,11.0,89,0.00,,,0.00,weatherlink.com 1.10,2013-05-25 13:48:00,
2013-05-25 07:03:00,49.2,46.0,29.97,SW,228,7.0,13.0,89,0.00,,,0.00,weatherlink.com 1.10,2013-05-25 14:03:00,
2013-05-25 07:18:00,49.7,46.0,29.97,SE,131,6.0,14.0,88,0.00,,,0.00,weatherlink.com 1.10,2013-05-25 14:18:00,
2013-05-25 07:33:00,50.5,47.0,29.97,South,178,3.0,12.0,86,0.00,,,0.00,weatherlink.com 1.10,2013-05-25 14:33:00,
2013-05-25 07:48:00,51.6,47.0,29.97,SSW,204,11.0,14.0,84,0.00,,,0.00,weatherlink.com 1.10,2013-05-25 14:48:00,
2013-05-25 08:03:00,51.9,47.0,29.98,South,188,9.0,14.0,83,0.00,,,0.00,weatherlink.com 1.10,2013-05-25 15:03:00,
2013-05-25 08:18:00,52.6,47.0,29.98,SSE,158,4.0,12.0,81,0.00,,,0.00,weatherlink.com 1.10,2013-05-25 15:18:00,
2013-05-25 08:33:00,54.1,48.0,29.98,SSW,195,3.0,9.0,79,0.00,,,0.00,weatherlink.com 1.10,2013-05-25 15:33:00,
2013-05-25 08:48:00,54.5,47.0,29.98,SE,143,6.0,12.0,76,0.00,,,0.00,weatherlink.com 1.10,2013-05-25 15:48:00,
2013-05-25 09:03:00,55.3,48.0,29.98,SSE,152,5.0,11.0,75,0.00,,,0.00,weatherlink.com 1.10,2013-05-25 16:03:00,
2013-05-25 09:18:00,55.9,47.0,29.98,South,173,2.0,10.0,73,0.00,,,0.00,weatherlink.com 1.10,2013-05-25 16:18:00,
2013-05-25 09:33:00,56.8,48.0,29.98,SW,215,3.0,14.0,72,0.00,,,0.00,weatherlink.com 1.10,2013-05-25 16:33:00,
2013-05-25 09:48:00,57.5,48.0,29.99,SSE,155,6.0,10.0,70,0.00,,,0.00,weatherlink.com 1.10,2013-05-25 16:48:00,
2013-05-25 10:04:00,58.0,48.0,29.99,SSW,208,8.0,12.0,69,0.00,,,0.00,weatherlink.com 1.10,2013-05-25 17:04:00,
2013-05-25 10:19:00,58.6,48.0,29.99,SSW,210,5.0,12.0,68,0.00,,,0.00,weatherlink.com 1.10,2013-05-25 17:19:00,
2013-05-25 10:34:00,59.3,48.0,29.99,SSW,195,8.0,10.0,66,0.00,,,0.00,weatherlink.com 1.10,2013-05-25 17:34:00,
2013-05-25 10:49:00,59.7,48.0,29.99,SW,225,11.0,11.0,65,0.00,,,0.00,weatherlink.com 1.10,2013-05-25 17:49:00,
2013-05-25 11:04:00,60.3,48.0,29.99,SSE,165,5.0,13.0,65,0.00,,,0.00,weatherlink.com 1.10,2013-05-25 18:04:00,
2013-05-25 11:19:00,60.9,48.0,30.00,SSE,162,6.0,12.0,62,0.00,,,0.00,weatherlink.com 1.10,2013-05-25 18:19:00,
2013-05-25 11:34:00,60.9,48.0,30.00,SE,139,3.0,11.0,62,0.00,,,0.00,weatherlink.com 1.10,2013-05-25 18:34:00,
2013-05-25 11:49:00,62.0,48.0,30.00,SW,219,7.0,12.0,61,0.00,,,0.00,weatherlink.com 1.10,2013-05-25 18:49:00,
2013-05-25 12:04:00,61.1,48.0,30.00,SW,225,5.0,14.0,63,0.00,,,0.00,weatherlink.com 1.10,2013-05-25 19:04:00,
2013-05-25 12:19:00,60.8,49.0,30.00,SSW,211,11.0,14.0,65,0.00,,,0.00,weatherlink.com 1.10,2013-05-25 19:19:00,
2013-05-25 12:34:00,60.3,49.0,30.00,SSE,148,5.0,15.0,66,0.00,,,0.00,weatherlink.com 1.10,2013-05-25 19:34:00,
2013-05-25 12:49:00,60.3,48.0,30.00,West,271,4.0,14.0,65,0.00,,,0.00,weatherlink.com 1.10,2013-05-25 19:49:00,
2013-05-25 13:04:00,60.3,48.0,30.00,SW,229,7.0,15.0,64,0.00,,,0.00,weatherlink.com 1.10,2013-05-25 20:04:00,
2013-05-25 13:19:00,61.1,48.0,30.00,SW,219,8.0,15.0,62,0.00,,,0.00,weatherlink.com 1.10,2013-05-25 20:19:00,
2013-05-25 13:34:00,61.0,48.0,30.00,SSW,193,12.0,16.0,62,0.00,,,0.00,weatherlink.com 1.10,2013-05-25 20:34:00,
2013-05-25 13:49:00,62.7,47.0,30.00,SSW,194,5.0,17.0,58,0.00,,,0.00,weatherlink.com 1.10,2013-05-25 20:49:00,
2013-05-25 14:04:00,62.4,47.0,30.00,ESE,108,13.0,15.0,58,0.00,,,0.00,weatherlink.com 1.10,2013-05-25 21:04:00,
2013-05-25 14:19:00,62.1,48.0,29.99,South,186,6.0,16.0,61,0.00,,,0.00,weatherlink.com 1.10,2013-05-25 21:19:00,
2013-05-25 14:34:00,62.2,48.0,29.99,SSW,197,8.0,14.0,60,0.00,,,0.00,weatherlink.com 1.10,2013-05-25 21:34:00,
2013-05-25 14:49:00,61.9,49.0,29.99,SSW,195,5.0,18.0,62,0.00,,,0.00,weatherlink.com 1.10,2013-05-25 21:49:00,
2013-05-25 15:04:00,61.1,48.0,29.99,West,275,6.0,19.0,63,0.00,,,0.00,weatherlink.com 1.10,2013-05-25 22:04:00,
2013-05-25 15:19:00,61.4,49.0,29.99,WSW,248,3.0,16.0,64,0.00,,,0.00,weatherlink.com 1.10,2013-05-25 22:19:00,
2013-05-25 15:34:00,61.1,49.0,29.99,South,191,5.0,17.0,64,0.00,,,0.00,weatherlink.com 1.10,2013-05-25 22:34:00,
2013-05-25 15:49:00,61.7,48.0,29.98,SSE,155,9.0,16.0,62,0.00,,,0.00,weatherlink.com 1.10,2013-05-25 22:49:00,
2013-05-25 16:04:00,61.3,49.0,29.98,SSW,201,10.0,17.0,64,0.00,,,0.00,weatherlink.com 1.10,2013-05-25 23:04:00,
2013-05-25 16:19:00,61.8,49.0,29.98,SSE,162,10.0,16.0,64,0.00,,,0.00,weatherlink.com 1.10,2013-05-25 23:19:00,
2013-05-25 16:34:00,62.6,50.0,29.98,SSW,204,6.0,14.0,64,0.00,,,0.00,weatherlink.com 1.10,2013-05-25 23:34:00,
2013-05-25 16:49:00,63.0,50.0,29.98,SE,139,9.0,12.0,63,0.00,,,0.00,weatherlink.com 1.10,2013-05-25 23:49:00,
2013-05-25 17:04:00,62.8,50.0,29.98,SE,145,3.0,14.0,64,0.00,,,0.00,weatherlink.com 1.10,2013-05-26 00:04:00,
2013-05-25 17:19:00,62.8,50.0,29.99,WSW,252,2.0,10.0,63,0.00,,,0.00,weatherlink.com 1.10,2013-05-26 00:19:00,
2013-05-25 17:34:00,63.5,50.0,29.98,SSW,205,4.0,11.0,61,0.00,,,0.00,weatherlink.com 1.10,2013-05-26 00:34:00,
2013-05-25 17:49:00,63.3,49.0,29.98,SW,226,7.0,9.0,61,0.00,,,0.00,weatherlink.com 1.10,2013-05-26 00:49:00,
2013-05-25 18:04:00,63.6,49.0,29.98,WNW,294,10.0,10.0,59,0.00,,,0.00,weatherlink.com 1.10,2013-05-26 01:04:00,
2013-05-25 18:19:00,63.0,47.0,29.98,SW,224,5.0,16.0,57,0.00,,,0.00,weatherlink.com 1.10,2013-05-26 01:19:00,
2013-05-25 18:34:00,62.0,48.0,29.98,West,259,9.0,16.0,60,0.00,,,0.00,weatherlink.com 1.10,2013-05-26 01:34:00,
2013-05-25 18:49:00,61.6,48.0,29.98,West,262,6.0,13.0,61,0.00,,,0.00,weatherlink.com 1.10,2013-05-26 01:49:00,
2013-05-25 19:04:00,60.1,48.0,29.98,NW,304,12.0,15.0,64,0.00,,,0.00,weatherlink.com 1.10,2013-05-26 02:04:00,
2013-05-25 19:19:00,59.9,48.0,29.98,West,281,6.0,10.0,65,0.00,,,0.00,weatherlink.com 1.10,2013-05-26 02:19:00,
2013-05-25 19:34:00,59.1,48.0,29.98,WSW,248,9.0,16.0,67,0.00,,,0.00,weatherlink.com 1.10,2013-05-26 02:34:00,
2013-05-25 19:49:00,58.4,48.0,29.98,West,274,5.0,11.0,69,0.00,,,0.00,weatherlink.com 1.10,2013-05-26 02:49:00,
2013-05-25 20:04:00,58.2,48.0,29.98,SW,221,3.0,12.0,69,0.00,,,0.00,weatherlink.com 1.10,2013-05-26 03:04:00,
2013-05-25 20:19:00,57.6,48.0,29.99,WSW,249,2.0,10.0,70,0.00,,,0.00,weatherlink.com 1.10,2013-05-26 03:19:00,
2013-05-25 20:34:00,56.5,48.0,29.99,WSW,240,3.0,7.0,73,0.00,,,0.00,weatherlink.com 1.10,2013-05-26 03:34:00,
2013-05-25 20:49:00,55.9,48.0,30.00,WSW,250,8.0,8.0,76,0.00,,,0.00,weatherlink.com 1.10,2013-05-26 03:49:00,
2013-05-25 21:04:00,55.1,48.0,30.00,SW,218,5.0,9.0,78,0.00,,,0.00,weatherlink.com 1.10,2013-05-26 04:04:00,
2013-05-25 21:20:00,54.4,48.0,30.00,WSW,252,4.0,6.0,80,0.00,,,0.00,weatherlink.com 1.10,2013-05-26 04:20:00,
2013-05-25 21:34:00,54.1,48.0,30.01,WSW,239,3.0,9.0,81,0.00,,,0.00,weatherlink.com 1.10,2013-05-26 04:34:00,
2013-05-25 21:49:00,54.0,49.0,30.01,SW,224,2.0,6.0,82,0.00,,,0.00,weatherlink.com 1.10,2013-05-26 04:49:00,
2013-05-25 22:05:00,53.9,49.0,30.01,SW,236,2.0,6.0,82,0.00,,,0.00,weatherlink.com 1.10,2013-05-26 05:05:00,
2013-05-25 22:20:00,54.1,49.0,30.02,SW,217,3.0,6.0,82,0.00,,,0.00,weatherlink.com 1.10,2013-05-26 05:20:00,
2013-05-25 22:35:00,54.3,49.0,30.02,North,10,2.0,7.0,81,0.00,,,0.00,weatherlink.com 1.10,2013-05-26 05:35:00,
2013-05-25 22:50:00,54.8,49.0,30.02,SSW,205,3.0,9.0,80,0.00,,,0.00,weatherlink.com 1.10,2013-05-26 05:50:00,
2013-05-25 23:05:00,54.7,49.0,30.03,South,170,5.0,9.0,81,0.00,,,0.00,weatherlink.com 1.10,2013-05-26 06:05:00,
2013-05-25 23:20:00,54.4,49.0,30.03,WSW,251,1.0,8.0,81,0.00,,,0.00,weatherlink.com 1.10,2013-05-26 06:20:00,
2013-05-25 23:35:00,54.1,49.0,30.03,SE,145,5.0,11.0,82,0.00,,,0.00,weatherlink.com 1.10,2013-05-26 06:35:00,
2013-05-25 23:50:00,53.5,49.0,30.03,SW,224,4.0,7.0,84,0.00,,,0.00,weatherlink.com 1.10,2013-05-26 06:50:00,